| time (UTC) | temp C | wind direction | speed KPH | gust KPH | rain 1hr cm | rain 24hr cm | rain mn cm | humidity % | barometer mb |
| 20260506233100 | 13 | 259 | 3.2 | 11.3 | 0.00 | 0.00 | 0.00 | 92 | 1024.4 |
| 20260506231551 | 12 | 258 | 3.2 | 14.5 | 0.00 | 0.00 | 0.00 | 93 | 1024.3 |
| 20260506230052 | 13 | 258 | 3.2 | 12.9 | 0.00 | 0.00 | 0.00 | 91 | 1024.5 |
| 20260506224552 | 13 | 253 | 1.6 | 9.7 | 0.00 | 0.00 | 0.00 | 93 | 1024.5 |
| 20260506223052 | 13 | 281 | 4.8 | 11.3 | 0.00 | 0.00 | 0.00 | 93 | 1024.6 |
| 20260506221549 | 12 | 264 | 6.4 | 12.9 | 0.00 | 0.00 | 0.00 | 92 | 1024.8 |
| 20260506220051 | 12 | 291 | 1.6 | 11.3 | 0.00 | 0.00 | 0.00 | 92 | 1024.7 |
| 20260506214550 | 13 | 284 | 4.8 | 11.3 | 0.00 | 0.00 | 0.00 | 92 | 1024.7 |
| 20260506213045 | 13 | 253 | 1.6 | 11.3 | 0.00 | 0.00 | 0.00 | 91 | 1024.6 |
| 20260506211551 | 12 | 260 | 1.6 | 12.9 | 0.00 | 0.00 | 0.00 | 93 | 1024.5 |
| 20260506210045 | 12 | 282 | 6.4 | 17.7 | 0.00 | 0.00 | 0.00 | 93 | 1024.5 |
| 20260506204544 | 12 | 275 | 1.6 | 11.3 | 0.00 | 0.00 | 0.00 | 96 | 1024.6 |
| 20260506203043 | 12 | 263 | 1.6 | 6.4 | 0.00 | 0.00 | 0.00 | 96 | 1024.5 |
| 20260506201542 | 12 | 266 | 0.0 | 8.0 | 0.00 | 0.00 | 0.00 | 96 | 1024.5 |
| 20260506200041 | 12 | 277 | 0.0 | 6.4 | 0.00 | 0.00 | 0.00 | 95 | 1024.5 |
| 20260506194539 | 12 | 263 | 4.8 | 9.7 | 0.00 | 0.00 | 0.00 | 94 | 1024.2 |
| 20260506193038 | 12 | 290 | 3.2 | 8.0 | 0.00 | 0.00 | 0.00 | 94 | 1024.1 |
| 20260506191538 | 12 | 271 | 0.0 | 8.0 | 0.00 | 0.00 | 0.00 | 94 | 1024.1 |
| 20260506190037 | 12 | 297 | 4.8 | 16.1 | 0.00 | 0.00 | 0.00 | 92 | 1024.1 |
| 20260506184535 | 13 | 249 | 3.2 | 14.5 | 0.00 | 0.00 | 0.00 | 92 | 1024.0 |
| 20260506183034 | 13 | 236 | 0.0 | 9.7 | 0.00 | 0.00 | 0.00 | 90 | 1023.7 |
| 20260506181531 | 12 | 304 | 4.8 | 8.0 | 0.00 | 0.00 | 0.00 | 90 | 1023.7 |
| 20260506180033 | 12 | 267 | 0.0 | 12.9 | 0.00 | 0.00 | 0.00 | 92 | 1023.8 |
| 20260506174529 | 12 | 284 | 1.6 | 9.7 | 0.00 | 0.00 | 0.00 | 92 | 1023.6 |
| 20260506173028 | 12 | 224 | 1.6 | 9.7 | 0.00 | 0.00 | 0.00 | 93 | 1023.6 |
| 20260506171531 | 12 | 280 | 1.6 | 9.7 | 0.00 | 0.00 | 0.00 | 94 | 1023.6 |
| 20260506170027 | 12 | 297 | 1.6 | 11.3 | 0.00 | 0.00 | 0.00 | 93 | 1023.5 |
| 20260506164525 | 12 | 303 | 4.8 | 12.9 | 0.00 | 0.00 | 0.00 | 92 | 1023.4 |
| 20260506163024 | 12 | 284 | 0.0 | 11.3 | 0.00 | 0.00 | 0.00 | 92 | 1023.3 |
| 20260506161524 | 12 | 266 | 1.6 | 9.7 | 0.00 | 0.00 | 0.00 | 92 | 1023.2 |
| 20260506160023 | 12 | 265 | 1.6 | 4.8 | 0.00 | 0.00 | 0.00 | 92 | 1023.0 |
| 20260506154518 | 12 | 222 | 0.0 | 9.7 | 0.00 | 0.00 | 0.00 | 93 | 1022.8 |
| 20260506153017 | 12 | 219 | 0.0 | 4.8 | 0.00 | 0.00 | 0.00 | 94 | 1022.7 |
| 20260506151516 | 12 | 260 | 0.0 | 4.8 | 0.00 | 0.00 | 0.00 | 94 | 1022.8 |
| 20260506150015 | 12 | 265 | 0.0 | 3.2 | 0.00 | 0.00 | 0.00 | 95 | 1022.8 |
| 20260506144525 | 11 | 251 | 0.0 | 1.6 | 0.00 | 0.00 | 0.00 | 95 | 1022.6 |
| 20260506143012 | 11 | 253 | 0.0 | 3.2 | 0.00 | 0.00 | 0.00 | 96 | 1022.3 |
| 20260506141512 | 11 | 267 | 0.0 | 4.8 | 0.00 | 0.00 | 0.00 | 96 | 1022.5 |
| 20260506140011 | 11 | 257 | 0.0 | 3.2 | 0.00 | 0.00 | 0.00 | 97 | 1022.2 |
| 20260506134509 | 11 | 257 | 0.0 | 0.0 | 0.00 | 0.00 | 0.00 | 97 | 1022.2 |
| 20260506133009 | 11 | 257 | 0.0 | 3.2 | 0.00 | 0.00 | 0.00 | 96 | 1022.2 |
| 20260506131508 | 11 | 260 | 0.0 | 1.6 | 0.00 | 0.00 | 0.00 | 96 | 1022.2 |
| 20260506130008 | 11 | 315 | 0.0 | 3.2 | 0.00 | 0.00 | 0.00 | 95 | 1022.3 |
| 20260506124505 | 11 | 323 | 0.0 | 6.4 | 0.00 | 0.00 | 0.00 | 94 | 1022.0 |
| 20260506123004 | 11 | 326 | 3.2 | 8.0 | 0.00 | 0.00 | 0.00 | 95 | 1022.0 |
| 20260506121503 | 11 | 318 | 1.6 | 6.4 | 0.00 | 0.00 | 0.00 | 95 | 1022.1 |
| 20260506120002 | 11 | 309 | 1.6 | 4.8 | 0.00 | 0.00 | 0.00 | 95 | 1021.8 |
| 20260506114606 | 11 | 309 | 1.6 | 6.4 | 0.00 | 0.00 | 0.00 | 95 | 1021.7 |
| 20260506113059 | 11 | 309 | 3.2 | 4.8 | 0.00 | 0.00 | 0.00 | 95 | 1021.6 |
| 20260506111557 | 11 | 322 | 1.6 | 6.4 | 0.00 | 0.00 | 0.00 | 94 | 1021.6 |
| 20260506110057 | 11 | 286 | 1.6 | 6.4 | 0.00 | 0.00 | 0.00 | 94 | 1021.6 |
| 20260506104604 | 11 | 288 | 0.0 | 3.2 | 0.00 | 0.00 | 0.00 | 94 | 1021.5 |
| 20260506103104 | 11 | 288 | 0.0 | 4.8 | 0.00 | 0.00 | 0.00 | 94 | 1021.3 |
| 20260506101554 | 11 | 282 | 0.0 | 3.2 | 0.00 | 0.00 | 0.00 | 94 | 1021.2 |
| 20260506100106 | 11 | 281 | 1.6 | 4.8 | 0.00 | 0.00 | 0.00 | 94 | 1021.2 |
| 20260506094601 | 11 | 282 | 1.6 | 6.4 | 0.00 | 0.00 | 0.00 | 94 | 1021.2 |
| 20260506093049 | 11 | 311 | 0.0 | 3.2 | 0.00 | 0.00 | 0.00 | 94 | 1021.1 |
| 20260506091549 | 11 | 317 | 0.0 | 3.2 | 0.00 | 0.00 | 0.00 | 94 | 1020.8 |
| 20260506090049 | 11 | 318 | 1.6 | 6.4 | 0.00 | 0.00 | 0.00 | 94 | 1021.0 |
| 20260506084552 | 11 | 249 | 0.0 | 0.0 | 0.00 | 0.00 | 0.00 | 96 | 1021.0 |
| 20260506083053 | 11 | 249 | 0.0 | 3.2 | 0.00 | 0.00 | 0.00 | 96 | 1020.9 |
| 20260506081600 | 12 | 281 | 0.0 | 0.0 | 0.00 | 0.00 | 0.00 | 95 | 1020.7 |
| 20260506073039 | 12 | 270 | 0.0 | 4.8 | 0.00 | 0.00 | 0.00 | 95 | 1020.4 |
| 20260506071542 | 12 | 243 | 0.0 | 4.8 | 0.00 | 0.00 | 0.00 | 95 | 1020.4 |
| 20260506061541 | 12 | 313 | 0.0 | 6.4 | 0.00 | 0.00 | 0.00 | 94 | 1020.0 |
| 20260506044543 | 12 | 285 | 0.0 | 1.6 | 0.00 | 0.00 | 0.00 | 96 | 1019.8 |
| 20260506043028 | 12 | 286 | 0.0 | 1.6 | 0.00 | 0.00 | 0.00 | 96 | 1019.8 |
| 20260506041528 | 12 | 286 | 0.0 | 1.6 | 0.00 | 0.00 | 0.00 | 96 | 1019.7 |
| 20260506040027 | 12 | 286 | 0.0 | 1.6 | 0.00 | 0.00 | 0.00 | 95 | 1019.6 |
| 20260506034526 | 12 | 286 | 0.0 | 3.2 | 0.00 | 0.00 | 0.00 | 95 | 1019.4 |
| 20260506033029 | 12 | 286 | 1.6 | 6.4 | 0.00 | 0.00 | 0.00 | 95 | 1019.3 |
| 20260506031540 | 12 | 267 | 0.0 | 4.8 | 0.00 | 0.00 | 0.00 | 95 | 1019.1 |
| 20260506030029 | 12 | 278 | 1.6 | 6.4 | 0.00 | 0.00 | 0.00 | 95 | 1019.0 |
| 20260506024529 | 13 | 286 | 1.6 | 9.7 | 0.00 | 0.00 | 0.00 | 93 | 1019.1 |
| 20260506023024 | 13 | 279 | 0.0 | 3.2 | 0.00 | 0.00 | 0.00 | 93 | 1018.8 |
| 20260506021522 | 13 | 290 | 0.0 | 4.8 | 0.00 | 0.00 | 0.00 | 93 | 1018.8 |
| 20260506020022 | 13 | 278 | 0.0 | 3.2 | 0.00 | 0.00 | 0.00 | 92 | 1018.7 |
| 20260506014523 | 13 | 275 | 1.6 | 6.4 | 0.00 | 0.00 | 0.00 | 91 | 1018.7 |
| 20260506013023 | 13 | 293 | 1.6 | 6.4 | 0.00 | 0.00 | 0.00 | 91 | 1018.8 |
| 20260506011542 | 13 | 284 | 0.0 | 8.0 | 0.00 | 0.00 | 0.00 | 90 | 1018.9 |
| 20260506010044 | 13 | 288 | 1.6 | 8.0 | 0.00 | 0.00 | 0.00 | 89 | 1018.6 |
| 20260506004522 | 13 | 241 | 1.6 | 11.3 | 0.00 | 0.00 | 0.00 | 91 | 1018.7 |
| 20260506003022 | 14 | 299 | 1.6 | 6.4 | 0.00 | 0.00 | 0.00 | 89 | 1018.8 |
| 20260506001518 | 14 | 278 | 1.6 | 8.0 | 0.00 | 0.00 | 0.00 | 90 | 1018.8 |
| 20260506000018 | 14 | 263 | 0.0 | 9.7 | 0.00 | 0.00 | 0.00 | 90 | 1019.0 |
| 20260505234516 | 14 | 301 | 4.8 | 9.7 | 0.00 | 0.00 | 0.00 | 89 | 1019.2 |